Theta_e
308 311 316 318 318 320 321 321 321 321 321 319 318 314 310 306 302 298 294 293 291 290 289 289 289 289 289 288 289 289 289 290
308 314 316 316 316 319 319 319 318 318 319 318 314 308 305 302 298 295 292 291 289 289 289 289 288 289 289 289 289 289 288 287
307 309 311 311 314 315 315 315 314 316 313 307 303 300 297 296 294 292 291 290 290 290 290 290 289 290 290 289 289 287 286 285
297 297 297 295 295 295 295 295 296 298 298 296 295 294 293 292 291 291 291 290 291 292 291 290 290 289 289 288 287 285 285 285
293 293 293 293 294 294 294 295 294 294 293 292 291 291 291 291 291 291 292 291 291 291 291 290 290 289 288 287 285 285 285 285
291 291 292 292 292 292 293 293 293 292 291 291 291 292 292 291 291 291 290 290 290 289 288 288 287 287 285 284 283 283 283 283
291 291 291 292 292 292 292 292 292 291 290 291 290 289 288 288 287 287 286 286 286 285 285 285 286 287 287 286 283 283 282 282
290 290 291 291 291 290 290 291 290 288 288 287 287 286 286 286 285 284 284 284 284 284 283 283 283 287 287 288 285 284 284 283
285 286 287 288 288 288 288 288 287 286 286 286 285 284 284 284 284 283 283 283 282 282 282 282 283 286 286 286 284 283 283 283
282 283 283 284 285 284 283 283 283 282 283 284 284 284 284 284 283 283 283 283 283 283 282 282 282 285 286 284 282 282 282 282
277 278 278 280 282 280 279 279 279 280 280 281 282 282 281 281 281 282 282 282 282 282 282 281 280 285 285 284 282 280 281 281
274 272 274 277 278 276 276 275 277 278 278 278 279 279 280 280 280 280 280 280 280 280 280 280 280 281 282 282 280 279 279 280
272 271 272 274 275 274 273 275 276 276 275 276 276 277 277 278 277 277 277 277 277 277 277 277 277 278 279 280 280 280 277 276
271 270 269 270 271 270 271 274 274 274 273 273 274 275 276 275 274 274 275 273 272 272 272 272 274 274 277 278 278 277 274 275
269 268 267 268 268 268 269 272 271 270 271 272 271 272 273 274 273 273 272 271 271 270 269 269 270 272 273 273 273 274 273 273
267 266 265 266 266 266 267 269 270 269 269 270 270 270 270 271 272 272 273 273 270 270 269 267 268 272 274 274 272 271 272 268
265 264 264 264 263 264 265 267 267 267 267 267 267 268 268 267 267 273 274 274 274 274 272 270 273 274 274 274 273 272 272 263
263 263 262 262 262 263 264 265 265 265 266 265 265 265 265 265 264 263 266 270 271 272 272 272 273 273 272 272 271 269 267 260
261 260 260 260 259 261 262 263 262 262 263 264 263 263 263 263 262 262 261 260 262 266 269 269 271 271 270 270 265 259 261 259
260 259 259 258 258 260 259 260 259 262 261 259 259 260 260 261 261 261 261 260 261 261 264 264 268 268 267 266 258 258 258 258
Wind_Speed
11 11 9 13 12 14 13 15 15 17 14 13 13 11 10 11 11 11 9 11 11 10 8 7 6 6 7 6 6 5 3 3
13 9 9 10 9 11 10 13 12 13 12 12 8 9 9 10 9 11 11 11 12 13 12 9 6 5 7 4 7 4 3 5
10 11 11 8 8 6 3 5 5 6 5 6 8 8 8 8 8 11 12 10 11 10 8 8 10 5 4 5 5 5 6 4
16 15 12 12 12 12 11 10 10 10 9 9 9 10 10 10 9 9 10 12 11 9 6 8 4 7 5 4 5 4 4 4
17 15 15 14 14 13 13 12 13 14 14 13 12 13 12 12 12 11 10 8 8 6 4 5 6 3 4 3 2 2 3 4
17 15 15 15 14 15 15 13 12 13 11 12 11 11 10 10 11 11 9 7 6 7 5 6 5 2 1 1 2 3 5 5
19 18 17 18 16 16 15 16 14 15 14 11 13 13 13 11 10 10 10 9 7 6 5 5 4 6 5 4 4 4 5 5
20 19 18 19 16 18 17 15 18 16 13 14 13 14 11 10 9 8 9 9 8 7 6 6 6 10 10 8 4 5 5 6
20 19 17 17 17 17 17 19 16 15 18 13 13 13 9 12 11 9 7 7 6 8 8 7 6 13 13 12 5 6 6 6
18 17 20 19 16 19 17 16 18 17 14 12 11 10 10 11 10 7 7 8 8 6 7 6 5 16 16 12 6 7 8 8
18 18 21 17 14 20 17 19 18 15 13 11 11 12 13 11 10 8 7 8 6 9 9 11 10 19 21 17 7 9 8 10
20 19 17 15 15 20 17 19 13 12 13 14 13 14 12 10 10 10 10 10 10 10 9 11 11 16 27 26 12 11 11 10
17 17 17 17 16 17 19 12 11 11 12 14 14 11 10 12 12 13 11 12 12 11 10 11 12 21 23 25 24 21 11 11
14 17 18 18 16 15 12 12 11 13 15 14 13 12 12 13 13 10 12 11 11 10 10 10 10 10 23 23 25 23 14 11
14 17 16 14 15 13 12 10 12 13 13 12 13 12 12 11 10 10 11 10 9 9 9 8 8 10 11 11 11 18 14 19
13 14 15 13 14 13 13 11 12 12 12 12 10 11 10 11 10 9 11 13 8 8 8 10 10 13 22 20 14 14 17 14
14 14 14 13 14 14 14 12 10 11 10 9 8 8 8 8 7 19 20 21 22 23 16 8 19 26 27 27 28 27 29 9
11 10 10 11 13 13 12 11 12 11 10 9 11 10 10 10 10 11 10 16 22 24 23 25 24 29 29 29 30 28 25 11
10 11 11 12 14 12 11 12 12 11 13 8 8 8 8 8 8 7 9 11 11 18 22 25 27 29 28 28 21 13 13 9
9 11 10 10 11 10 9 8 8 9 7 5 4 4 5 5 6 6 7 8 9 11 14 16 25 26 23 23 7 9 9 9
Wind_Direction
200 191 156 165 173 175 189 201 197 197 191 193 188 169 160 158 163 154 139 137 136 126 125 116 118 117 119 130 112 127 120 97
184 157 136 145 150 176 183 199 195 194 188 187 167 147 144 148 148 142 133 138 138 139 133 125 118 126 114 104 113 137 125 201
87 80 76 78 86 93 137 170 184 169 132 117 112 116 115 120 129 135 133 133 135 129 119 138 135 133 145 143 105 184 190 182
62 64 61 58 58 52 46 47 49 50 81 78 80 91 88 91 94 106 115 119 110 102 116 133 148 139 126 157 180 193 207 207
61 62 62 62 64 63 59 54 59 67 65 66 72 77 81 86 85 83 76 79 100 100 118 109 107 112 130 179 165 211 241 232
62 63 62 64 65 65 60 56 59 62 73 74 74 78 78 95 93 88 84 65 52 75 73 79 84 74 149 170 251 258 266 251
65 67 66 66 64 66 66 61 59 65 51 57 71 68 68 46 58 70 66 66 58 61 60 55 44 27 1 314 295 271 261 273
62 63 62 64 62 64 65 65 55 55 58 43 56 57 61 69 59 52 59 58 48 40 35 31 21 3 348 324 308 293 293 288
55 48 52 54 55 56 52 54 59 47 51 46 44 55 36 59 58 43 40 45 33 38 31 26 11 358 347 333 313 304 292 285
55 48 49 44 51 59 50 51 48 44 45 42 48 58 52 51 54 41 47 46 41 33 32 28 13 21 16 9 348 335 325 311
47 49 45 31 45 58 48 48 40 34 38 38 46 56 55 46 40 37 47 50 43 50 46 44 36 32 29 25 9 358 345 340
42 48 41 37 41 56 47 43 34 38 40 42 42 44 40 48 45 44 47 47 42 45 45 38 28 29 22 15 9 356 350 342
46 45 38 34 46 50 45 27 31 41 44 42 42 44 41 46 44 41 40 44 38 35 35 28 26 20 15 10 8 358 348 341
45 49 38 32 32 41 22 24 33 41 42 40 43 39 43 46 43 43 41 41 33 29 24 17 16 8 7 4 3 357 354 339
47 50 45 33 33 33 16 20 42 45 41 39 39 37 37 46 42 46 43 40 34 27 22 10 6 1 4 0 355 357 354 349
48 48 41 32 32 25 19 19 43 45 38 38 38 36 33 36 41 45 48 46 37 34 25 8 6 6 1 359 358 355 350 354
40 42 34 32 30 20 16 25 37 50 42 35 38 37 38 34 31 36 39 40 36 30 31 15 5 5 2 360 0 356 358 355
42 41 38 37 34 17 15 23 36 43 34 34 32 29 28 28 26 12 5 27 23 17 17 12 2 3 0 359 2 359 1 0
43 40 34 36 28 4 6 31 37 36 32 36 35 27 24 24 19 15 13 360 354 3 3 3 355 359 359 357 355 351 355 342
52 44 38 37 23 359 356 27 38 37 22 10 14 14 24 14 15 14 7 358 347 345 353 353 346 353 354 354 355 337 326 321